Simultaneous Nadir Overpasses (SNOs) Predictions

Prediction of SNOs between LANDSAT-8 and METOP-B Satellite Orbit:

Table of predicted SNOs for the next 14.0 days since TLE Epoch: 10/19/2024
Index Date (LANDSAT-8) Time (LANDSAT-8) Lat,Lon (LANDSAT-8) SZA (LANDSAT-8 ) Date (METOP-B) Time (METOP-B) Lat,Lon (METOP-B) SZA (METOP-B ) Distance(km) Time Diff (sec)
1 10/20/2024 04:50:34 81.40, 152.27 94.75 10/20/2024 04:49:46 81.41, 152.43 94.75 2.65 48
2 10/20/2024 05:40:01 -81.40, -40.17 85.25 10/20/2024 05:40:27 -81.40, -40.36 85.26 3.26 26
3 10/23/2024 00:24:47 81.40,-141.29 95.75 10/23/2024 00:23:58 81.41,-141.12 95.75 2.74 49
4 10/23/2024 01:14:14 -81.40, 26.30 84.25 10/23/2024 01:14:39 -81.40, 26.12 84.25 3.04 25
5 10/25/2024 19:58:58 81.40, -74.85 96.73 10/25/2024 19:58:10 81.40, -74.93 96.70 1.33 48
6 10/25/2024 20:48:25 -81.40, 92.76 83.27 10/25/2024 20:48:50 -81.41, 92.74 83.26 0.67 25
7 10/28/2024 15:33:06 81.40, -8.42 97.67 10/28/2024 15:32:20 81.40, -8.59 97.63 2.93 46
8 10/28/2024 16:22:33 -81.40, 159.20 82.33 10/28/2024 16:23:00 -81.41, 159.10 82.32 1.84 27
9 10/31/2024 11:07:13 81.40, 58.00 98.58 10/31/2024 11:06:30 81.40, 57.88 98.55 2.10 43



Historial Predications of SNOs between LANDSAT-8 and METOP-B
